    Orbital elements:
    2016 QM10                                                Earth MOID = 0.0492 AU
    Epoch 2016 July 31.0 TT = JDT 2457600.5                 MPC
    M 342.19564              (2000.0)            P               Q
    n   0.28428230     Peri.  143.30488     +0.96606161     -0.25642752
    a   2.2907068      Node   231.58274     +0.22654440     +0.89900012
    e   0.5448301      Incl.    2.27802     +0.12410724     +0.35502636
    P   3.47           H   22.7           G   0.15           U   7
    Residuals in seconds of arc
    160826 F51  0.0   0.1+    160827 Z21  0.1-  0.1+    160827 246  0.7-  0.2+
    160826 F51  0.0   0.1+    160827 Z21  0.1+  0.1+    160827 246  0.3-  0.1-
    160826 F51  0.1+  0.1+    160827 Z21  0.1-  0.1+    160827 246  0.3+  0.5+
    160826 F51  0.1-  0.1-    160827 Z21  0.0   0.3-    160827 246  0.2-  0.2-
    160826 104  0.3+  0.2-    160827 O75  0.3-  0.0     160827 L04  0.4+  0.2-
    160826 104  1.0+  0.4-    160827 O75  0.9-  0.6+    160828 L04  0.2+  0.1+
    160826 104  0.6+  0.2-    160827 O75  0.4+  0.4+    160828 L04  0.1+  0.2+
    160826 246  0.1-  0.3-    160827 O75  0.2+  0.9-    160828 104  0.9+  0.8-
    160826 246  0.1-  0.5+    160827 C47  0.2-  0.0     160828 104  0.2+  0.0
    160826 246  0.4-  0.0     160827 C77  0.7-  2.4+    160828 104  0.0   0.1-
    160826 246  0.8-  1.0-    160827 C47  0.1-  0.1-    160828 H36  0.5+  0.2+
    160826 246  0.2-  0.3+    160827 587  0.1+  0.2+    160828 H36  0.1+  0.0
    160826 246  0.7-  0.6-    160827 C47  0.1-  0.0     160828 H36  0.4+  0.2+
    160826 246  0.0   0.1+    160827 C77  0.7-  0.5+    160828 H21  0.2-  0.0
    160826 246  0.5-  0.9-    160827 587  0.2+  0.1-    160828 H21  0.2-  0.1-
    160826 246  0.1+  0.7+    160827 C47  0.1-  0.1+    160828 H21  0.1-  0.0
    160826 204  0.1+  0.0     160827 C77  0.3-  0.2-    160828 H21  0.0   0.1+
    160827 204  0.2+  0.1-    160827 C43  0.5+  0.2-    160828 K38  0.1+  0.2+
    160827 204  0.2+  0.0     160827 C43  0.6+  0.2-    160828 K38  0.1+  0.2-
    160827 595  0.3+  0.1-    160827 C43  0.2+  0.2-    160829 K38  0.1-  0.2-
    160827 595  0.0   0.5-    160827 246  0.2+  0.3-    160829 K38  0.3-  0.2-
    160827 Z21  0.0   0.1-    160827 246  0.6-  0.6-
    160827 Z21  0.2+  0.2+    160827 246  0.1+  0.2+
    
    Ephemeris:
    2016 QM10                a,e,i = 2.29, 0.54, 2                   q = 1.0427
    Date    TT    R. A. (2000) Decl.     Delta      r     Elong.  Phase     V
    2016 07 30    21 51 13.0 -02 33 10   0.2959  1.2911   156.0    18.7    21.6
    ...
    2016 08 14    22 18 48.7 +04 29 25   0.1972  1.1983   158.3    18.2    20.5
    ...
    2016 08 22    22 43 46.5 +10 15 39   0.1553  1.1550   155.9    20.9    20.0
    ...
    2016 08 28    23 11 59.6 +16 02 15   0.1295  1.1261   151.9    25.0    19.7
    2016 08 29    23 17 50.1 +17 08 14   0.1257  1.1216   151.0    25.8    19.6
    2016 08 30    23 24 04.2 +18 16 31   0.1221  1.1172   150.1    26.8    19.6
    ...
    2016 09 05    00 11 19.1 +25 43 46   0.1046  1.0932   142.7    34.0    19.4
    ...
    2016 09 13    01 44 58.2 +35 00 41   0.09391 1.0679   129.1    47.0    19.5
    ...
    2016 09 28    04 50 52.0 +36 32 32   0.1125  1.0436   108.7    65.4    20.4
    
    A. U. Tomatic                (C) Copyright 2016 MPC           M.P.E.C. 2016-Q36
    

    Read MPEC 2016-Q35 Read MPEC 2016-Q37


    MPEC number:

    Enter an MPEC number in one of the following forms:

    • 1997-B01 (the full form)
    • J97B01 (the packed version of the full form)
    • B01 (the abbreviated form)